Flag for U.S.A. Weather past 2 weeks in Long Beach, California, U.S.A.

Now
56 °F

Clear.


Feels Like: 56 °F
Forecast: 57 / 72 °F
Wind: No wind

Location: Long Beach Airport

Current Time: Apr 26, 2015 at 3:11:40 AM

Latest Report: Apr 26, 2015 at 1:53 AM


Visibility: 10 mi

Pressure: 29.92 "Hg

Humidity: 81%

Dew point: 50 °F

Location of Long BeachLocation

Historic Weather in Long Beach — Graph

°F

Long Beach temperature yesterday

Maximum temperature yesterday: 66 °F (at 1:53 PM)
Minimum temperature yesterday: 57 °F (at 11:53 PM)
Average temperature yesterday: 61 °F

Past Weeks' High & Low Weather Summary

 TemperatureHumidityPressure
High83 °F (Apr 15, 12:53 PM)90% (Apr 12, 11:53 PM)30.10 "Hg (Apr 12, 11:53 PM)
Low54 °F (Apr 11, 3:53 AM)7% (Apr 16, 11:53 AM)29.83 "Hg (Apr 20, 5:53 PM)
Average64 °F60%29.95 "Hg
* Reported Apr 11 1:53 AM — Apr 26 1:53 AM, Long Beach, Weather by CustomWeather, © 2015

Note: Actual official high and low records may vary slightly from our data, if they occured in-between our weather recording intervals... More about our weather records

Advertising

Long Beach weather history for previous 24 hours

 ConditionsComfort  
Time TempWeatherWind HumidityBarometerVisibility
1:53 AM
Sun, Apr 26
56 °FClear.No wind81%29.92 "Hg10 mi
12:53 AM56 °FClear.5 mph81%29.91 "Hg10 mi
11:53 PM
Sat, Apr 25
57 °FClear.5 mph78%29.91 "Hg10 mi
10:53 PM59 °FClear.6 mph72%29.91 "Hg10 mi
9:53 PM60 °FClear.13 mph67%29.89 "Hg10 mi
8:53 PM60 °FPassing clouds.14 mph69%29.88 "Hg10 mi
7:53 PM61 °FPassing clouds.18 mph65%29.86 "Hg10 mi
6:53 PM63 °FScattered clouds.15 mph65%29.87 "Hg10 mi
5:53 PM65 °FPassing clouds.16 mph66%29.86 "Hg10 mi
4:53 PM65 °FPartly sunny.13 mph70%29.87 "Hg10 mi
3:53 PM64 °FMostly cloudy.16 mph75%29.90 "Hg10 mi
2:53 PM62 °FLight rain. Mostly cloudy.12 mph83%29.93 "Hg5 mi
1:53 PM66 °FMostly cloudy.12 mph59%29.95 "Hg10 mi
1:00 PM64 °FMostly cloudy.15 mph65%29.97 "Hg10 mi
11:53 AM65 °FBroken clouds.9 mph59%29.99 "Hg10 mi
10:53 AM64 °FPartly sunny.8 mph58%30.00 "Hg10 mi
10:04 AM63 °FMostly cloudy.9 mph65%29.99 "Hg10 mi
9:53 AM64 °FBroken clouds.No wind65%29.99 "Hg10 mi
8:53 AM61 °FOvercast.7 mph72%29.99 "Hg10 mi
7:53 AM60 °FMostly cloudy.No wind75%29.98 "Hg10 mi
6:53 AM59 °FClear.No wind78%29.97 "Hg10 mi
5:53 AM59 °FMostly cloudy.5 mph78%29.97 "Hg10 mi
4:53 AM59 °FMostly cloudy.6 mph75%29.97 "Hg10 mi
4:04 AM59 °FPassing clouds.7 mph75%29.98 "Hg10 mi
3:53 AM59 °FPassing clouds.8 mph75%29.97 "Hg10 mi
Weather by CustomWeather, © 2015

See weather overviewHow to use our weather pages